Vancouver, WA
on Friday, December 14, 2012

Friday
Previous Day Next Day
Daily Summary
 ActualAverageRecord
Temperature
Mean Temperature °F 40°F  
Max Temperature 45°F 47°F 60°F (1977)
Min Temperature 35°F 34°F -7°F (1919)
Degree Days
Heating Degree Days 25    
Month to date heating degree days 273  
Since 1 July heating degree days 1095  
Cooling Degree Days 0    
Month to date cooling degree days 0  
Year to date cooling degree days 398  
Moisture
Dew Point 37°F   
Average Humidity 84    
Maximum Humidity 92    
Minimum Humidity 76    
Precipitation
Precipitation 0.36 in 0.22 in 1.62 in (2003)
Month to date precipitation 3.18 2.89  
Year to date precipitation 41.50 35.26  
Snow
Snow 0.00 in in in ()
Month to date snowfall 0.0  
Snow Depth 0.00 in   
Wind
Wind Speed 3 mph   
Max Wind Speed 7 mph   
Max Gust Speed 10 mph   
Visibility 8 miles   
Events Rain   

Key: T is trace of precipitation, MM is missing value
Source: NWS Daily Summary
Time(PST)TemperatureDew PointHumidity Pressure Visibility Wind DirectionWind SpeedGust SpeedPrecipitationEvents Conditions
12:53 AM 39.9°F 36.0°F 86% 29.86 in 8.0 miles SSE 4.6 mph - 0.00 in Rain Light Rain
1:40 AM 39.2°F 35.6°F 87% 29.85 in 7.0 miles Calm Calm - 0.03 in Rain Light Rain
1:53 AM 39.0°F 36.0°F 89% 29.85 in 7.0 miles SE 3.5 mph - 0.04 in Rain Light Rain
2:20 AM 39.2°F 37.4°F 93% 29.85 in 6.0 miles Calm Calm - 0.02 in Rain Light Rain
2:53 AM 39.0°F 37.0°F 93% 29.86 in 6.0 miles Calm Calm - 0.05 in Rain Light Rain
3:18 AM 39.2°F 37.4°F 93% 29.85 in 4.0 miles ESE 3.5 mph - 0.04 in Rain Rain
3:25 AM 39.2°F 37.4°F 93% 29.85 in 4.0 miles ESE 3.5 mph - 0.05 in Rain Rain
3:53 AM 39.0°F 37.0°F 93% 29.85 in 6.0 miles ESE 3.5 mph - 0.08 in Rain Light Rain
4:06 AM 39.2°F 37.4°F 93% 29.84 in 6.0 miles Calm Calm - 0.02 in Rain Light Rain
4:30 AM 39.2°F 37.4°F 93% 29.84 in 6.0 miles SE 4.6 mph - 0.04 in Rain Light Rain
4:48 AM 39.2°F 37.4°F 93% 29.84 in 7.0 miles SE 4.6 mph - 0.07 in Rain Light Rain
4:50 AM 39.2°F 37.4°F 93% 29.84 in 7.0 miles SE 4.6 mph - 0.07 in Rain Light Rain
4:53 AM 39.9°F 37.0°F 89% 29.84 in 8.0 miles ESE 4.6 mph - 0.07 in Rain Light Rain
5:53 AM 39.0°F 35.1°F 86% 29.84 in 9.0 miles South 4.6 mph - 0.06 in Rain Light Rain
6:38 AM 39.2°F 37.4°F 93% 29.84 in 9.0 miles ESE 3.5 mph - 0.01 in Rain Light Rain
6:53 AM 39.0°F 36.0°F 89% 29.84 in 5.0 miles ESE 3.5 mph - 0.02 in Rain Light Rain
7:41 AM 39.2°F 37.4°F 93% 29.85 in 5.0 miles Calm Calm - 0.02 in Rain Light Rain
7:53 AM 39.9°F 37.0°F 89% 29.85 in 6.0 miles SE 3.5 mph - 0.02 in Rain Light Rain
8:53 AM 39.9°F 37.9°F 93% 29.87 in 10.0 miles ESE 3.5 mph - 0.01 in   Overcast
9:53 AM 41.0°F 37.9°F 89% 29.88 in 10.0 miles Calm Calm - N/A   Overcast
10:53 AM 42.1°F 37.9°F 85% 29.89 in 10.0 miles Calm Calm - 0.01 in   Overcast
11:43 AM 42.8°F 37.4°F 81% 29.90 in 10.0 miles Calm Calm - N/A   Overcast
11:53 AM 42.1°F 37.9°F 85% 29.91 in 10.0 miles Calm Calm - N/A   Overcast
12:02 PM 42.8°F 37.4°F 81% 29.90 in 10.0 miles Calm Calm - N/A   Overcast
12:53 PM 44.1°F 37.9°F 79% 29.91 in 10.0 miles South 3.5 mph - N/A   Overcast
1:28 PM 44.6°F 37.4°F 76% 29.91 in 10.0 miles Calm Calm - N/A   Overcast
1:53 PM 44.1°F 37.9°F 79% 29.92 in 10.0 miles Calm Calm - N/A   Overcast
2:53 PM 45.0°F 37.0°F 74% 29.94 in 10.0 miles Calm Calm - N/A   Mostly Cloudy
3:20 PM 44.6°F 37.4°F 76% 29.94 in 10.0 miles Calm Calm - N/A   Overcast
3:34 PM 42.8°F 37.4°F 81% 29.94 in 10.0 miles Calm Calm - N/A   Mostly Cloudy
3:53 PM 43.0°F 37.9°F 82% 29.95 in 10.0 miles Calm Calm - N/A   Scattered Clouds
4:53 PM 42.1°F 37.9°F 85% 29.96 in 10.0 miles East 3.5 mph - N/A   Mostly Cloudy
5:53 PM 39.9°F 37.0°F 89% 29.96 in 10.0 miles East 3.5 mph - N/A   Clear
6:53 PM 39.0°F 37.0°F 93% 29.96 in 10.0 miles ESE 3.5 mph - N/A   Clear
7:53 PM 37.0°F 35.1°F 93% 29.98 in 9.0 miles Calm Calm - N/A   Clear
8:53 PM 37.9°F 36.0°F 93% 29.97 in 10.0 miles ESE 4.6 mph - N/A   Clear
9:53 PM 37.0°F 34.0°F 89% 29.99 in 10.0 miles Calm Calm - N/A   Clear
10:46 PM 37.4°F 35.6°F 93% 29.98 in 10.0 miles SE 4.6 mph - N/A   Mostly Cloudy
10:53 PM 37.9°F 36.0°F 93% 29.99 in 10.0 miles East 4.6 mph - N/A   Overcast
11:22 PM 37.4°F 35.6°F 93% 29.98 in 10.0 miles East 4.6 mph - N/A   Mostly Cloudy
11:53 PM 39.0°F 36.0°F 89% 29.97 in 10.0 miles East 5.8 mph - N/A   Overcast
Moon Phase
Dec. 14 Dec. 20 Dec. 28 Jan. 04 Jan. 11
Sunrise:07:44 AM (PST) Moon Rise:08:50 AM (PST)12/14
Sunset:04:27 PM (PST) Moon Set:06:30 PM (PST)12/14

Copyright © 2014 The Weather Underground, Inc.